Theta_e
307 308 309 309 315 317 321 320 320 319 316 317 317 308 307 305 304 304 304 301 298 296 294 295 294 293 292 290 290 289 287 285 285 285 284 284 285 285 287 286 286 286 286 286
309 309 311 314 317 319 318 318 320 319 317 315 308 306 306 305 305 305 304 302 299 296 295 294 293 292 291 290 290 288 286 285 284 284 283 283 283 284 285 285 286 285 286 286
310 309 314 318 315 317 318 315 316 319 317 309 308 307 306 305 305 305 304 301 296 295 294 293 292 291 290 290 289 286 285 285 285 284 283 283 282 282 283 284 285 285 286 286
310 312 318 316 313 313 314 314 312 313 313 310 308 306 305 304 304 304 300 297 296 295 294 292 291 290 290 288 287 285 284 284 284 284 283 283 282 282 283 284 285 285 286 286
308 313 315 316 313 312 313 316 312 311 311 310 306 305 305 305 304 301 298 296 295 294 293 292 291 290 286 286 285 284 284 284 285 284 283 283 284 283 284 285 285 286 286 286
308 313 314 314 309 308 311 318 311 310 309 309 308 307 304 303 301 298 297 296 295 294 293 291 290 286 285 284 285 285 285 285 286 286 285 285 284 285 285 286 286 286 286 286
309 311 312 309 307 309 316 315 309 308 308 307 308 304 302 300 298 297 296 295 295 294 293 291 290 289 288 287 287 288 288 286 286 286 286 286 286 286 286 286 286 286 286 287
307 307 311 307 307 314 310 308 308 307 306 307 305 303 302 300 297 296 295 295 295 294 292 291 290 290 290 290 289 289 289 287 287 286 286 286 286 285 286 286 286 286 286 287
306 304 306 307 307 306 308 307 306 305 305 307 305 303 302 299 297 296 296 295 295 294 292 291 291 291 291 291 291 290 289 287 287 286 286 285 285 285 285 285 285 285 285 286
303 307 305 305 305 305 304 305 304 305 305 306 304 302 301 299 297 296 296 295 295 294 292 292 291 291 291 291 291 290 288 288 288 287 286 285 285 285 284 285 285 285 285 285
303 304 305 307 303 303 303 303 304 305 306 306 303 302 301 299 298 297 296 295 295 294 293 292 291 291 291 291 291 289 288 289 289 287 287 287 286 286 285 284 284 284 285 285
306 305 305 305 303 303 303 304 304 305 305 306 304 302 302 300 299 298 296 296 295 294 293 292 292 291 292 291 291 290 289 289 289 287 287 287 286 287 286 285 284 284 285 285
305 304 304 303 303 303 304 304 304 305 305 306 305 303 302 301 300 298 297 296 295 295 294 293 292 292 292 291 291 291 289 289 289 287 287 286 286 286 285 287 285 284 285 286
303 303 305 305 305 304 304 305 305 307 308 308 305 304 303 301 300 299 298 297 296 295 294 293 292 292 292 291 291 290 289 289 289 288 287 287 286 286 285 285 285 284 285 286
304 305 305 304 304 305 306 307 307 305 305 304 305 304 304 302 301 300 299 298 297 296 295 294 293 292 292 292 292 290 289 290 290 289 287 288 287 286 286 285 284 284 285 285
306 308 306 305 305 306 308 308 306 305 305 304 305 304 305 304 303 302 299 298 297 296 295 294 294 293 292 292 292 290 290 290 290 290 289 288 288 287 286 284 284 283 284 283
307 310 308 308 308 308 308 309 308 306 306 305 305 305 304 304 303 302 300 299 298 297 296 296 295 294 293 292 292 290 290 290 291 290 290 289 287 287 286 285 284 283 283 283
305 305 308 307 307 307 309 309 307 307 306 306 306 305 304 304 304 303 301 299 298 297 296 296 296 295 294 293 292 291 290 291 291 291 291 290 289 287 287 286 285 284 284 284
304 304 304 307 309 310 309 308 308 307 307 306 306 305 305 305 305 304 302 299 299 298 298 297 296 296 295 294 293 292 291 292 291 292 291 291 290 289 287 287 286 285 285 285
303 303 304 306 309 308 308 308 307 307 306 306 306 305 305 305 305 304 303 301 302 302 300 299 297 297 296 294 294 294 291 292 292 291 292 291 291 291 290 288 287 286 286 285
304 304 303 304 306 308 308 307 307 306 305 305 305 305 304 305 305 304 303 302 304 303 302 301 298 297 297 296 295 295 294 291 292 293 292 292 292 292 291 290 288 288 287 286
304 304 304 304 305 305 307 309 308 305 305 306 305 305 305 306 305 304 304 304 305 304 303 303 301 299 298 297 295 295 295 294 292 292 293 293 292 291 292 292 291 289 288 287
304 304 304 303 304 305 305 305 308 308 306 303 303 304 304 304 305 304 304 306 305 305 304 304 303 302 300 298 297 296 295 295 295 294 293 293 293 293 292 292 292 291 289 289
304 305 304 304 304 304 304 305 303 306 307 307 306 306 307 306 305 305 305 305 305 306 306 306 305 304 303 301 299 298 296 295 296 296 295 294 293 293 293 293 293 292 291 290
297 298 303 303 303 303 303 303 305 304 302 303 304 305 308 309 308 308 309 308 305 304 305 305 305 306 305 303 302 300 299 298 297 296 296 296 296 295 294 294 294 293 292 292
297 298 299 303 302 303 304 303 302 304 304 302 302 301 301 302 304 306 308 308 308 308 307 306 305 306 306 305 303 302 301 300 299 298 297 297 296 296 296 295 295 294 294 293
298 298 300 303 303 302 304 305 304 303 302 302 301 301 301 301 300 300 301 303 305 307 307 308 307 306 305 305 303 302 301 301 300 300 299 298 298 297 297 297 296 296 295 295
Wind_Speed
9 13 10 9 9 11 1 6 2 4 1 8 1 7 7 6 6 5 5 4 3 2 2 4 7 9 13 17 21 24 25 29 32 33 30 29 28 24 26 27 28 27 28 28
4 2 7 2 11 11 11 12 2 1 3 5 6 9 6 7 6 5 5 4 3 3 3 5 6 9 13 17 21 23 25 29 32 33 32 31 28 23 30 28 28 30 28 28
4 7 1 2 9 10 7 18 10 7 4 4 6 7 6 7 6 6 6 5 5 4 4 5 6 10 14 17 19 22 25 29 32 33 32 32 29 28 27 29 30 30 29 29
4 5 3 3 11 10 13 17 21 21 15 4 5 3 4 4 6 6 7 5 5 4 5 5 8 11 14 16 18 23 28 29 33 35 33 33 32 31 29 28 29 29 29 31
2 2 3 3 8 9 8 7 18 19 18 15 4 4 4 2 3 5 7 10 7 6 7 6 9 12 14 17 21 25 28 32 34 34 32 36 37 31 29 28 29 27 29 31
2 2 2 4 15 16 6 3 18 17 16 15 11 1 3 4 8 11 16 13 10 10 6 6 9 11 16 18 21 23 27 30 33 38 37 38 34 31 28 29 28 28 30 34
3 2 2 9 19 12 2 5 17 15 13 12 4 3 5 9 9 16 16 13 11 8 6 6 7 8 12 14 16 20 25 29 34 37 39 37 33 31 30 29 30 32 31 35
3 3 3 11 10 5 6 13 12 14 13 13 1 9 9 7 9 15 15 12 11 9 5 4 5 7 9 12 15 19 23 28 32 34 37 37 34 34 32 31 30 32 31 32
1 3 2 2 9 8 6 8 9 13 16 10 2 7 8 6 9 13 13 12 11 8 4 3 4 7 10 12 15 18 22 27 31 32 36 33 34 33 33 31 30 30 29 28
5 1 6 15 4 4 5 9 14 12 12 8 3 7 7 6 10 13 13 12 12 8 4 2 3 6 8 11 13 17 21 26 30 32 34 36 35 34 36 35 31 29 30 27
5 5 17 3 3 10 15 16 13 16 11 11 7 5 7 6 11 15 14 12 13 9 6 3 1 4 7 10 13 16 20 25 29 33 35 36 36 35 35 39 39 33 27 30
3 12 9 17 17 19 18 18 14 11 14 12 13 9 11 11 17 18 15 14 13 8 6 4 1 3 6 9 11 15 20 23 28 32 34 36 37 38 38 43 44 46 49 36
6 12 15 19 20 27 14 12 25 18 15 7 11 15 19 12 18 17 15 15 14 11 7 5 3 1 4 7 10 13 17 20 25 29 32 35 38 37 31 41 43 50 50 54
13 11 9 6 7 25 23 27 25 23 18 14 20 19 21 18 17 17 17 16 13 10 8 6 3 1 2 5 8 11 14 18 21 25 28 30 33 36 35 33 32 37 45 50
7 11 14 19 22 22 24 22 9 4 14 15 21 22 20 19 19 19 15 14 12 10 9 7 4 1 1 3 6 9 12 15 18 21 24 28 32 37 39 38 36 33 40 46
16 10 9 9 13 14 15 9 4 2 11 11 19 20 22 21 19 16 15 15 16 14 11 8 6 3 1 2 4 6 9 12 15 18 21 26 29 33 35 37 36 38 42 40
9 12 7 5 6 9 9 11 4 7 12 19 22 20 18 16 14 14 15 16 14 11 10 8 6 5 3 0 2 4 7 9 12 14 18 21 24 26 28 32 35 36 38 41
18 13 12 6 6 6 10 13 5 11 13 17 17 17 17 18 19 17 16 15 12 9 10 8 7 5 5 2 0 2 4 6 8 11 13 16 18 20 22 25 28 30 32 35
24 21 20 17 16 15 10 13 9 3 9 14 16 18 19 18 15 15 14 14 12 11 11 10 8 7 6 5 2 1 1 3 5 7 9 11 13 15 17 19 22 23 25 28
30 29 27 22 24 22 17 15 11 8 5 10 12 12 12 13 13 14 15 16 15 9 6 9 11 10 7 7 5 3 2 0 2 3 5 7 9 11 12 14 15 17 19 21
29 28 26 24 22 26 22 16 12 12 7 3 5 8 9 9 11 12 14 14 14 12 8 7 10 11 10 9 8 6 5 4 3 1 1 2 3 5 7 8 10 11 13 15
30 28 26 26 22 23 24 21 17 14 10 6 3 4 6 6 7 11 12 13 9 8 10 10 10 11 11 10 11 10 8 7 6 5 4 4 3 2 2 3 4 6 7 9
22 27 30 26 22 19 23 23 19 17 17 14 9 6 3 3 6 7 9 7 10 9 10 11 10 10 12 13 13 13 12 10 9 8 7 6 6 5 5 4 2 1 1 4
11 17 25 28 25 22 20 18 18 16 16 16 13 9 7 6 4 2 7 9 8 8 9 9 12 12 13 15 15 15 15 15 13 11 10 10 9 9 7 7 5 4 4 4
14 12 16 20 26 20 19 15 14 15 14 14 12 10 8 7 5 6 6 3 6 9 11 11 13 14 15 16 17 16 15 15 15 14 14 14 13 13 12 11 10 10 9 9
13 12 8 4 11 17 17 16 15 13 13 13 11 12 11 8 5 4 5 4 3 6 8 11 12 12 14 16 18 18 17 16 16 16 16 16 17 17 15 14 13 13 11 11
14 13 11 6 10 10 12 10 13 14 13 14 11 10 10 10 11 9 8 5 5 6 7 7 8 10 12 13 16 18 19 19 19 19 19 19 20 19 18 16 16 15 14 13
Wind_Direction
275 262 266 282 316 304 265 265 232 342 76 277 207 151 147 146 128 150 158 160 152 95 61 7 6 6 1 359 359 359 359 0 354 354 354 352 352 346 341 352 352 344 342 342
287 340 328 240 12 16 34 10 264 292 253 303 64 99 116 149 153 170 159 153 120 106 62 13 13 8 2 0 358 359 5 4 360 1 358 355 351 342 357 350 349 351 347 346
287 340 186 356 359 12 360 29 10 19 330 100 88 117 154 169 173 164 149 131 121 113 56 34 32 13 8 1 359 6 11 7 2 0 356 355 355 355 357 352 354 351 352 358
295 331 50 343 18 7 350 37 23 19 4 23 135 145 158 168 153 138 124 125 129 113 82 64 30 25 11 6 12 14 15 11 9 7 355 355 358 360 3 356 354 355 0 8
27 322 297 21 11 349 352 0 19 7 0 357 2 79 11 81 114 126 130 141 135 120 106 63 40 25 27 30 27 24 18 16 14 10 358 1 0 359 2 359 360 3 12 18
341 334 64 19 328 323 294 21 4 353 347 343 332 60 253 97 111 110 132 137 134 124 99 70 54 46 47 39 31 22 16 13 14 15 12 6 360 4 5 7 9 15 22 28
328 319 351 4 330 314 63 324 320 334 330 328 303 212 141 114 100 129 139 138 136 122 90 74 63 43 39 28 19 12 10 11 17 18 18 10 4 12 12 12 18 23 26 31
323 347 48 16 344 41 303 301 313 323 327 326 148 114 115 116 125 135 138 140 141 123 102 77 53 28 28 17 4 3 5 16 18 18 20 16 12 18 21 18 23 27 30 35
249 250 268 300 272 282 296 308 315 324 321 327 137 125 128 131 139 150 148 147 149 136 122 81 36 20 17 9 359 7 17 19 19 21 25 21 20 20 26 24 27 31 32 34
336 68 307 302 312 73 321 319 317 312 312 315 169 144 130 133 147 151 153 154 157 150 139 106 37 22 21 14 8 13 22 24 22 26 30 30 32 28 35 32 30 34 35 34
274 319 331 125 8 335 323 319 314 316 316 300 156 177 147 150 161 164 162 167 168 163 159 148 58 19 17 14 10 22 29 27 27 33 35 40 43 35 43 49 45 43 42 45
283 317 280 282 301 312 313 309 309 316 320 341 160 177 159 163 172 170 169 173 174 172 172 158 130 15 11 15 18 26 32 31 32 36 38 42 40 42 47 52 52 50 57 57
290 298 287 281 287 292 288 294 299 295 279 270 188 179 169 168 180 178 175 178 181 181 180 176 164 39 17 13 20 34 38 36 37 37 40 42 44 40 25 44 52 49 50 57
293 291 284 260 293 306 303 294 293 280 259 230 182 183 174 170 178 183 186 192 186 180 181 185 186 103 40 15 24 42 44 44 44 42 43 47 51 49 43 38 31 36 48 54
294 278 270 283 293 295 301 303 315 110 125 136 172 177 178 175 183 193 194 191 188 182 186 191 206 187 95 30 36 46 48 49 50 50 49 51 54 57 55 49 43 38 50 54
302 281 275 272 283 289 301 324 65 106 129 144 167 181 189 193 191 189 187 189 185 197 199 201 208 215 180 23 35 59 57 53 51 53 55 54 53 55 56 55 50 49 51 48
358 354 334 302 307 318 321 332 275 165 161 170 183 186 189 187 185 190 195 199 206 206 207 215 216 212 212 185 41 70 65 63 57 57 57 58 60 60 59 61 62 62 63 68
5 352 341 308 305 320 342 359 54 167 177 185 180 181 179 181 190 199 203 203 207 214 214 221 229 226 218 230 340 79 80 69 63 61 62 63 64 65 67 67 67 68 69 71
5 2 358 4 13 10 2 18 39 143 171 175 174 182 189 196 205 206 199 201 209 218 226 220 226 236 235 229 238 194 92 71 69 66 67 68 70 71 71 72 74 74 75 75
4 4 8 18 34 30 27 34 49 80 122 176 180 181 197 204 205 206 205 210 222 235 247 226 222 230 239 241 243 258 248 191 67 61 63 63 64 69 71 75 79 82 81 81
3 360 2 9 23 31 33 33 40 42 45 136 199 211 202 205 204 201 205 223 239 244 253 241 226 224 230 236 239 251 257 255 271 311 18 31 48 54 64 72 81 86 92 94
1 358 357 2 22 31 32 35 43 45 42 43 82 176 200 203 213 215 224 243 266 255 243 246 238 233 234 235 234 240 248 251 255 263 278 287 299 312 349 54 76 91 102 108
24 3 354 355 0 32 35 36 43 42 46 43 46 66 61 280 241 222 241 261 262 265 251 249 251 247 242 239 237 236 237 240 247 254 262 273 286 295 299 303 289 298 134 134
1 25 12 358 3 22 31 31 39 44 49 55 56 51 39 39 62 311 271 262 265 261 261 271 267 261 250 244 244 244 243 243 243 244 246 248 253 262 267 268 261 255 243 236
359 359 25 27 352 346 7 22 33 35 39 46 45 41 38 40 39 13 12 285 253 256 263 272 270 266 260 255 253 254 254 254 253 251 247 246 246 248 247 247 246 248 248 242
338 335 339 48 14 335 329 8 16 20 20 20 27 25 25 28 10 332 320 316 326 258 265 263 263 265 260 258 256 258 263 264 261 258 257 257 253 252 250 246 246 246 241 236
336 344 9 247 273 325 341 352 7 7 5 358 353 0 6 17 24 23 16 349 307 288 280 276 275 270 261 255 256 260 264 268 269 270 268 263 260 261 262 260 259 254 255 243